STARLINK-36767

Last updated on Sun Mar 15 2026 00:02:07 GMT+0000 (Coordinated Universal Time)

1 67814U 26032T 26073.50362285 .00157199 00000+0 10339-2 0 9997 2 67814 97.2837 260.2620 0001469 55.3867 304.7536 15.75225365 5549
UTC large
Height (km)
Speed (km/s)
/
Latitude / Longitude
Inclination (degrees)
Orbital Period (minutes)
Azimuth
Elevation
Range (km)
Doppler Factor

Next 0 passes for location: London (51.5072 / 0.1276)

Sorry there are no passes over London.